THA944 VTBS-LIRF

Flight info

Callsign THA944
Flight time N/A
Altitude 34000
Route TARED1E TARED G463 BETNO N895 PTN P646 DOPID DCT CEA R460 BBN/N0512F360 R460 LKN M890 SULOM T400 PS/N0501F370 P500 ATROL/N0503F360 P500 GERRY/N0501F370 P500 MOTMO/N0502F360 P500 FIRUZ/K0928F360 Z407 VAJEN Z767 DAROW/K0919F380 L181 BUTRA Z407 USETU Z514 OGNOB Y92 BUPOR T388 POGON/N0495F380 A477 BABUM A909 TUGTA B701 LARGI N701 BAKUV L850 ADEKI DCT BADIR DCT LAGAS DCT FOQUS DCT SARPI UM10 GOKPA/N0503F400 UM10 TIVUG UL852 NEGEM DCT DOLAP DCT RAMAP DCT NILKU DCT SIPAL DCT VELUG/N0508F330 DCT ESODU DCT ASPIR DCT MOPUV
Aircraft B748/H-SDE3FGHIM1M2RWXY/C

Departure

Time 2026-05-05 16:44
Airport Suvarnabhumi Airport (VTBS)

Arrival

Time N/A
Airport Rome–Fiumicino Leonardo da Vinci International Airport (LIRF)
Time Latitude Longitude Altitude Speed Heading
2026-05-05 16:12 13.68811 100.75266 23 ft 0 kts 104°
2026-05-05 16:27 13.68803 100.75282 26 ft 4 kts 118°
2026-05-05 16:27 13.68790 100.75306 28 ft 4 kts 117°
2026-05-05 16:27 13.68782 100.75330 25 ft 3 kts 104°
2026-05-05 16:28 13.68787 100.75313 24 ft 4 kts 107°
2026-05-05 16:28 13.68795 100.75287 23 ft 4 kts 112°
2026-05-05 16:28 13.68806 100.75262 23 ft 4 kts 117°
2026-05-05 16:28 13.68820 100.75238 28 ft 4 kts 124°
2026-05-05 16:29 13.68836 100.75217 23 ft 4 kts 139°
2026-05-05 16:29 13.68858 100.75204 27 ft 4 kts 184°
2026-05-05 16:29 13.68863 100.75204 23 ft 2 kts 194°
2026-05-05 16:35 13.68862 100.75204 23 ft 1 kts 194°
2026-05-05 16:35 13.68838 100.75198 27 ft 7 kts 194°
2026-05-05 16:35 13.68773 100.75180 27 ft 13 kts 194°
2026-05-05 16:35 13.68671 100.75152 24 ft 17 kts 195°
2026-05-05 16:36 13.68593 100.75129 25 ft 1 kts 205°
2026-05-05 16:36 13.68592 100.75128 23 ft 0 kts 210°
2026-05-05 16:36 13.68589 100.75125 23 ft 1 kts 221°
2026-05-05 16:36 13.68587 100.75117 23 ft 1 kts 251°
2026-05-05 16:37 13.68589 100.75107 27 ft 2 kts 282°
2026-05-05 16:37 13.68595 100.75074 27 ft 7 kts 282°
2026-05-05 16:37 13.68609 100.75008 27 ft 12 kts 282°
2026-05-05 16:37 13.68630 100.74910 25 ft 16 kts 282°
2026-05-05 16:38 13.68662 100.74791 28 ft 18 kts 289°
2026-05-05 16:38 13.68710 100.74656 23 ft 20 kts 288°
2026-05-05 16:38 13.68744 100.74515 28 ft 22 kts 284°
2026-05-05 16:38 13.68784 100.74350 25 ft 26 kts 284°
2026-05-05 16:39 13.68822 100.74206 28 ft 14 kts 285°
2026-05-05 16:39 13.68843 100.74156 24 ft 4 kts 320°
2026-05-05 16:39 13.68869 100.74138 24 ft 4 kts 340°
2026-05-05 16:39 13.68912 100.74132 28 ft 10 kts
2026-05-05 16:40 13.68984 100.74146 28 ft 11 kts 14°
2026-05-05 16:40 13.69070 100.74168 27 ft 15 kts 14°
2026-05-05 16:40 13.69186 100.74199 27 ft 19 kts 14°
2026-05-05 16:40 13.69329 100.74239 25 ft 23 kts 15°
2026-05-05 16:41 13.69495 100.74281 24 ft 26 kts 14°
2026-05-05 16:41 13.69681 100.74330 27 ft 29 kts 15°
2026-05-05 16:41 13.69854 100.74377 24 ft 25 kts 14°
2026-05-05 16:41 13.70032 100.74423 28 ft 28 kts 14°
2026-05-05 16:42 13.70176 100.74461 28 ft 10 kts 14°
2026-05-05 16:42 13.70199 100.74465 23 ft 1 kts
2026-05-05 16:42 13.70204 100.74464 28 ft 1 kts 354°
2026-05-05 16:42 13.70208 100.74462 26 ft 2 kts 341°
2026-05-05 16:43 13.70218 100.74455 26 ft 2 kts 318°
2026-05-05 16:43 13.70225 100.74433 23 ft 7 kts 285°
2026-05-05 16:43 13.70249 100.74345 28 ft 10 kts 282°
2026-05-05 16:43 13.70232 100.74291 24 ft 7 kts 226°
2026-05-05 16:44 13.70184 100.74270 25 ft 9 kts 193°
2026-05-05 16:44 13.69869 100.74188 26 ft 94 kts 194°
2026-05-05 16:44 13.68939 100.73939 37 ft 178 kts 195°
2026-05-05 16:44 13.67690 100.73602 1086 ft 172 kts 194°
2026-05-05 16:45 13.66660 100.73327 2340 ft 151 kts 202°
2026-05-05 16:45 13.65555 100.72792 1984 ft 201 kts 187°
2026-05-05 16:45 13.64123 100.72572 2130 ft 216 kts 192°
2026-05-05 16:45 13.62606 100.72224 2220 ft 230 kts 193°
2026-05-05 16:46 13.61022 100.71797 2306 ft 240 kts 198°
2026-05-05 16:46 13.59565 100.70924 2362 ft 248 kts 222°
2026-05-05 16:46 13.58552 100.69504 2415 ft 254 kts 245°
2026-05-05 16:46 13.58138 100.67733 2474 ft 258 kts 267°
2026-05-05 16:47 13.58268 100.65887 2536 ft 260 kts 277°
2026-05-05 16:47 13.58542 100.64059 2826 ft 254 kts 278°
2026-05-05 16:47 13.58839 100.62258 3041 ft 260 kts 281°
2026-05-05 16:47 13.59320 100.60423 3368 ft 271 kts 287°
2026-05-05 16:48 13.59930 100.58565 3827 ft 277 kts 289°
2026-05-05 16:48 13.60748 100.56775 4296 ft 280 kts 309°
2026-05-05 16:48 13.62229 100.55501 4932 ft 277 kts 329°
2026-05-05 16:48 13.63880 100.54480 5782 ft 280 kts 328°
2026-05-05 16:49 13.65484 100.53308 6666 ft 286 kts 320°
2026-05-05 16:49 13.66908 100.51826 7395 ft 297 kts 310°
2026-05-05 16:49 13.68214 100.50151 8264 ft 303 kts 309°
2026-05-05 16:49 13.69584 100.48475 9153 ft 308 kts 312°
2026-05-05 16:50 13.71043 100.46835 10073 ft 313 kts 313°
2026-05-05 16:50 13.72517 100.45172 10967 ft 317 kts 312°
2026-05-05 16:50 13.73988 100.43462 11862 ft 321 kts 311°
2026-05-05 16:50 13.75471 100.41732 12725 ft 324 kts 311°
2026-05-05 16:51 13.76979 100.39988 13594 ft 328 kts 312°
2026-05-05 16:51 13.78511 100.38222 14402 ft 333 kts 312°
2026-05-05 16:51 13.80059 100.36432 15183 ft 338 kts 312°
2026-05-05 16:51 13.81649 100.34593 15737 ft 351 kts 312°
2026-05-05 16:52 13.83308 100.32675 16132 ft 368 kts 312°
2026-05-05 16:52 13.85052 100.30656 16462 ft 387 kts 311°
2026-05-05 16:52 13.86882 100.28533 16746 ft 406 kts 312°
2026-05-05 16:52 13.88807 100.26307 16991 ft 426 kts 312°
2026-05-05 16:53 13.90811 100.23987 17370 ft 440 kts 312°
2026-05-05 16:53 13.92865 100.21602 17908 ft 449 kts 312°
2026-05-05 16:53 13.94954 100.19183 18505 ft 455 kts 312°
2026-05-05 16:53 13.97073 100.16730 19108 ft 461 kts 311°
2026-05-05 16:54 13.99207 100.14249 19719 ft 465 kts 312°
2026-05-05 16:54 14.01367 100.11742 20329 ft 470 kts 311°
2026-05-05 16:54 14.03546 100.09215 20908 ft 474 kts 311°
2026-05-05 16:54 14.05739 100.06669 21475 ft 477 kts 311°
2026-05-05 16:55 14.07950 100.04101 22023 ft 481 kts 311°
2026-05-05 16:55 14.10175 100.01513 22547 ft 484 kts 311°
2026-05-05 16:55 14.12415 99.98910 23057 ft 487 kts 311°
2026-05-05 16:55 14.14670 99.96289 23547 ft 491 kts 311°
2026-05-05 16:56 14.16911 99.93682 24010 ft 494 kts 311°
2026-05-05 16:56 14.19072 99.90926 24465 ft 496 kts 304°
2026-05-05 16:56 14.21004 99.87966 24904 ft 499 kts 303°
2026-05-05 16:56 14.22911 99.84961 25327 ft 502 kts 303°
2026-05-05 16:57 14.24840 99.81948 25742 ft 506 kts 304°
2026-05-05 16:57 14.26808 99.78929 26142 ft 509 kts 304°
2026-05-05 16:57 14.28783 99.75892 26526 ft 511 kts 304°
2026-05-05 16:57 14.30752 99.72830 26904 ft 514 kts 303°
2026-05-05 16:58 14.32731 99.69749 27258 ft 517 kts 303°
2026-05-05 16:58 14.34730 99.66657 27605 ft 519 kts 304°
2026-05-05 16:58 14.36739 99.63553 27938 ft 522 kts 303°
2026-05-05 16:58 14.38752 99.60427 28255 ft 524 kts 303°
2026-05-05 16:59 14.40771 99.57287 28568 ft 526 kts 303°
2026-05-05 16:59 14.42801 99.54138 28870 ft 529 kts 303°
2026-05-05 16:59 14.44698 99.50884 29164 ft 530 kts 298°
2026-05-05 16:59 14.46413 99.47508 29452 ft 532 kts 297°
2026-05-05 17:00 14.48092 99.44109 29888 ft 531 kts 297°
2026-05-05 17:00 14.49787 99.40727 30323 ft 530 kts 297°
2026-05-05 17:00 14.51504 99.37365 30759 ft 529 kts 298°
2026-05-05 17:00 14.53213 99.34002 31198 ft 528 kts 297°
2026-05-05 17:01 14.54896 99.30639 31637 ft 527 kts 297°
2026-05-05 17:01 14.56578 99.27282 32089 ft 526 kts 297°
2026-05-05 17:01 14.58269 99.23936 32544 ft 525 kts 297°
2026-05-05 17:01 14.59955 99.20601 32998 ft 523 kts 297°
2026-05-05 17:02 14.61629 99.17269 33455 ft 522 kts 297°
2026-05-05 17:02 14.63296 99.13950 33838 ft 520 kts 297°
2026-05-05 17:02 14.66615 99.07348 33883 ft 516 kts 297°
2026-05-05 17:03 14.69912 99.00783 33878 ft 514 kts 297°
2026-05-05 17:03 14.73199 98.94233 33882 ft 513 kts 297°
2026-05-05 17:04 14.76482 98.87687 33882 ft 513 kts 297°
2026-05-05 17:04 14.79761 98.81138 33879 ft 513 kts 297°
2026-05-05 17:05 14.83037 98.74595 33890 ft 513 kts 297°
2026-05-05 17:05 14.86309 98.68049 33882 ft 513 kts 297°
2026-05-05 17:06 14.89582 98.61503 33882 ft 512 kts 297°
2026-05-05 17:06 14.92847 98.54958 33882 ft 512 kts 297°
2026-05-05 17:07 14.96108 98.48418 33882 ft 511 kts 297°
2026-05-05 17:07 14.99348 98.41926 33881 ft 511 kts 297°
2026-05-05 17:08 15.02600 98.35385 33880 ft 511 kts 297°
2026-05-05 17:08 15.05856 98.28849 33881 ft 511 kts 297°
2026-05-05 17:09 15.09104 98.22303 33881 ft 511 kts 297°
2026-05-05 17:09 15.12395 98.15783 33885 ft 511 kts 298°
2026-05-05 17:10 15.15726 98.09284 33884 ft 511 kts 297°
2026-05-05 17:10 15.19020 98.02771 33882 ft 511 kts 298°
2026-05-05 17:11 15.21780 97.97362 33885 ft 511 kts 297°
2026-05-05 17:11 15.25074 97.90855 33895 ft 511 kts 298°
2026-05-05 17:12 15.28381 97.84345 33884 ft 510 kts 298°
2026-05-05 17:12 15.31677 97.77833 33885 ft 510 kts 298°
2026-05-05 17:13 15.34974 97.71324 33887 ft 510 kts 297°
2026-05-05 17:13 15.38271 97.64804 33887 ft 511 kts 297°
2026-05-05 17:14 15.41565 97.58289 33885 ft 511 kts 297°
2026-05-05 17:14 15.44853 97.51766 33884 ft 510 kts 298°
2026-05-05 17:15 15.48147 97.45248 33886 ft 511 kts 297°
2026-05-05 17:15 15.51433 97.38722 33876 ft 511 kts 297°
2026-05-05 17:16 15.54722 97.32194 33875 ft 511 kts 297°
2026-05-05 17:16 15.58005 97.25662 33876 ft 511 kts 297°
2026-05-05 17:17 15.61289 97.19130 33877 ft 511 kts 297°
2026-05-05 17:17 15.64572 97.12593 33877 ft 511 kts 297°
2026-05-05 17:18 15.67857 97.06046 33876 ft 511 kts 297°
2026-05-05 17:18 15.71134 96.99508 33879 ft 511 kts 297°
2026-05-05 17:19 15.74409 96.92968 33875 ft 510 kts 297°
2026-05-05 17:19 15.77681 96.86429 33876 ft 511 kts 297°
2026-05-05 17:20 15.80952 96.79882 33876 ft 511 kts 297°
2026-05-05 17:20 15.84221 96.73337 33877 ft 511 kts 297°
2026-05-05 17:21 15.87488 96.66787 33877 ft 511 kts 297°
2026-05-05 17:22 15.92387 96.56952 33878 ft 511 kts 297°
2026-05-05 17:22 15.95654 96.50398 33878 ft 511 kts 297°
2026-05-05 17:23 15.98915 96.43837 33878 ft 511 kts 297°
2026-05-05 17:23 16.02175 96.37276 33879 ft 511 kts 297°
2026-05-05 17:24 16.05430 96.30721 33879 ft 510 kts 297°
2026-05-05 17:24 16.08663 96.24203 33881 ft 511 kts 297°
2026-05-05 17:25 16.11916 96.17631 33880 ft 511 kts 297°
2026-05-05 17:25 16.15169 96.11061 33882 ft 511 kts 297°
2026-05-05 17:26 16.18419 96.04491 33882 ft 511 kts 297°
2026-05-05 17:26 16.21668 95.97912 33882 ft 511 kts 297°
2026-05-05 17:27 16.24916 95.91331 33882 ft 511 kts 297°
2026-05-05 17:27 16.28164 95.84745 33883 ft 511 kts 297°
2026-05-05 17:28 16.31404 95.78169 33883 ft 511 kts 297°
2026-05-05 17:28 16.34644 95.71586 33883 ft 511 kts 297°
2026-05-05 17:29 16.37882 95.64997 33889 ft 511 kts 297°
2026-05-05 17:29 16.41117 95.58414 33884 ft 510 kts 297°
2026-05-05 17:30 16.44347 95.51831 33886 ft 510 kts 297°
2026-05-05 17:30 16.47576 95.45249 33889 ft 510 kts 297°
2026-05-05 17:31 16.50796 95.38667 33892 ft 510 kts 297°
2026-05-05 17:31 16.54019 95.32086 33894 ft 510 kts 296°
2026-05-05 17:32 16.57233 95.25507 33894 ft 509 kts 297°
2026-05-05 17:32 16.60426 95.18972 33892 ft 509 kts 297°
2026-05-05 17:33 16.63624 95.12396 33894 ft 508 kts 296°
2026-05-05 17:33 16.66841 95.05829 33893 ft 509 kts 297°
2026-05-05 17:34 16.70032 94.99255 33894 ft 508 kts 297°
2026-05-05 17:34 16.73235 94.92682 33894 ft 508 kts 297°
2026-05-05 17:35 16.76424 94.86112 33894 ft 508 kts 297°
2026-05-05 17:35 16.79617 94.79541 33890 ft 507 kts 297°
2026-05-05 17:36 16.83563 94.73471 33893 ft 506 kts 309°
2026-05-05 17:36 16.88019 94.67758 33892 ft 508 kts 309°
2026-05-05 17:37 16.92462 94.62029 33889 ft 508 kts 308°
2026-05-05 17:37 16.96904 94.56299 33893 ft 508 kts 309°
2026-05-05 17:38 17.01349 94.50563 33891 ft 508 kts 308°
2026-05-05 17:38 17.05787 94.44831 33893 ft 507 kts 308°
2026-05-05 17:39 17.10222 94.39096 33891 ft 507 kts 308°
2026-05-05 17:39 17.14652 94.33362 33893 ft 507 kts 308°
2026-05-05 17:40 17.19083 94.27626 33896 ft 507 kts 308°
2026-05-05 17:40 17.23507 94.21893 33891 ft 505 kts 308°
2026-05-05 17:41 17.27914 94.16173 33891 ft 505 kts 308°
2026-05-05 17:41 17.32314 94.10458 33894 ft 504 kts 308°
2026-05-05 17:42 17.36715 94.04745 33893 ft 504 kts 308°
2026-05-05 17:42 17.41111 93.99024 33895 ft 504 kts 308°
2026-05-05 17:43 17.45476 93.93345 33891 ft 504 kts 308°
2026-05-05 17:43 17.49860 93.87631 33895 ft 503 kts 308°
2026-05-05 17:44 17.54242 93.81921 33893 ft 503 kts 308°
2026-05-05 17:44 17.58617 93.76206 33887 ft 503 kts 308°
2026-05-05 17:45 17.62997 93.70490 33890 ft 503 kts 308°
2026-05-05 17:45 17.67376 93.64766 33890 ft 503 kts 308°
2026-05-05 17:46 17.71749 93.59042 33895 ft 503 kts 308°
2026-05-05 17:46 17.76124 93.53316 33891 ft 503 kts 308°
2026-05-05 17:47 17.80497 93.47582 33890 ft 503 kts 308°
2026-05-05 17:47 17.84871 93.41847 33896 ft 503 kts 308°
2026-05-05 17:48 17.89239 93.36108 33895 ft 503 kts 308°
2026-05-05 17:48 17.93609 93.30373 33893 ft 503 kts 308°
2026-05-05 17:49 17.97973 93.24626 33895 ft 504 kts 308°
2026-05-05 17:49 18.02342 93.18879 33889 ft 503 kts 308°
2026-05-05 17:50 18.06702 93.13132 33897 ft 503 kts 308°
2026-05-05 17:50 18.11062 93.07385 33898 ft 503 kts 308°
2026-05-05 17:51 18.15418 93.01630 33896 ft 503 kts 307°
2026-05-05 17:51 18.19774 92.95878 33894 ft 503 kts 307°
2026-05-05 17:52 18.24126 92.90124 33898 ft 503 kts 307°
2026-05-05 17:52 18.28476 92.84367 33898 ft 503 kts 307°
2026-05-05 17:53 18.32802 92.78636 33899 ft 503 kts 307°
2026-05-05 17:53 18.37152 92.72867 33892 ft 503 kts 307°
2026-05-05 17:54 18.41502 92.67093 33893 ft 503 kts 307°
2026-05-05 17:54 18.45855 92.61318 33893 ft 503 kts 307°
2026-05-05 17:55 18.50202 92.55538 33898 ft 503 kts 307°
2026-05-05 17:55 18.54546 92.49756 33894 ft 503 kts 307°
2026-05-05 17:56 18.58890 92.43970 33897 ft 503 kts 307°
2026-05-05 17:56 18.63233 92.38180 33896 ft 504 kts 307°
2026-05-05 17:57 18.67578 92.32384 33893 ft 504 kts 307°
2026-05-05 17:57 18.71187 92.27565 33897 ft 503 kts 307°
2026-05-05 17:58 18.76257 92.20786 33898 ft 503 kts 307°
2026-05-05 17:58 18.79860 92.15966 33898 ft 503 kts 307°
2026-05-05 17:59 18.84197 92.10159 33899 ft 503 kts 307°
2026-05-05 17:59 18.88528 92.04352 33900 ft 503 kts 307°
2026-05-05 18:00 18.92861 91.98539 33900 ft 504 kts 306°
2026-05-05 18:00 18.97132 91.92675 33899 ft 504 kts 306°
2026-05-05 18:01 19.01420 91.86817 33897 ft 504 kts 306°
2026-05-05 18:01 19.05716 91.80930 33898 ft 506 kts 306°
2026-05-05 18:02 19.09987 91.75073 33896 ft 507 kts 306°
2026-05-05 18:02 19.14289 91.69173 33899 ft 507 kts 306°
2026-05-05 18:03 19.18587 91.63268 33896 ft 507 kts 306°
2026-05-05 18:03 19.22884 91.57363 33881 ft 507 kts 306°
2026-05-05 18:04 19.27178 91.51449 33882 ft 506 kts 306°
2026-05-05 18:04 19.31471 91.45541 33882 ft 506 kts 306°
2026-05-05 18:05 19.35760 91.39625 33882 ft 506 kts 306°
2026-05-05 18:05 19.40050 91.33705 33881 ft 507 kts 306°
2026-05-05 18:06 19.44328 91.27795 33880 ft 505 kts 306°
2026-05-05 18:06 19.48595 91.21894 33878 ft 504 kts 306°
2026-05-05 18:07 19.52858 91.15991 33877 ft 504 kts 306°
2026-05-05 18:07 19.57122 91.10087 33877 ft 504 kts 306°
2026-05-05 18:08 19.61379 91.04179 33877 ft 504 kts 306°
2026-05-05 18:08 19.65611 90.98308 33882 ft 504 kts 306°
2026-05-05 18:09 19.69867 90.92391 34281 ft 504 kts 306°
2026-05-05 18:09 19.71995 90.89435 34716 ft 504 kts 306°
2026-05-05 18:09 19.74120 90.86480 35138 ft 503 kts 306°
2026-05-05 18:09 19.76238 90.83528 35561 ft 503 kts 306°
2026-05-05 18:10 19.78355 90.80576 35968 ft 502 kts 306°
2026-05-05 18:10 19.80471 90.77630 36336 ft 502 kts 306°
2026-05-05 18:10 19.82591 90.74677 36688 ft 503 kts 306°
2026-05-05 18:10 19.84707 90.71725 37050 ft 502 kts 306°
2026-05-05 18:11 19.86819 90.68776 37431 ft 501 kts 306°
2026-05-05 18:11 19.88925 90.65835 37786 ft 499 kts 306°
2026-05-05 18:11 19.91015 90.62919 37866 ft 494 kts 306°
2026-05-05 18:12 19.95147 90.57140 37862 ft 488 kts 306°
2026-05-05 18:12 19.99238 90.51417 37883 ft 485 kts 306°
2026-05-05 18:13 20.03316 90.45704 37886 ft 485 kts 306°
2026-05-05 18:13 20.07396 90.39989 37866 ft 485 kts 305°
2026-05-05 18:14 20.11467 90.34271 37881 ft 485 kts 305°
2026-05-05 18:14 20.15544 90.28547 37882 ft 485 kts 305°
2026-05-05 18:15 20.19615 90.22822 37885 ft 485 kts 305°
2026-05-05 18:15 20.23685 90.17089 37877 ft 485 kts 305°
2026-05-05 18:16 20.27756 90.11358 37883 ft 485 kts 305°
2026-05-05 18:16 20.31824 90.05622 37883 ft 485 kts 305°
2026-05-05 18:17 20.35895 89.99879 37880 ft 485 kts 305°
2026-05-05 18:17 20.39959 89.94130 37867 ft 486 kts 305°
2026-05-05 18:18 20.44029 89.88379 37862 ft 486 kts 305°
2026-05-05 18:18 20.48065 89.82661 37864 ft 486 kts 305°
2026-05-05 18:19 20.52134 89.76898 37876 ft 486 kts 305°
2026-05-05 18:19 20.56199 89.71129 37866 ft 486 kts 305°
2026-05-05 18:20 20.60264 89.65355 37868 ft 487 kts 305°
2026-05-05 18:20 20.64332 89.59576 37866 ft 487 kts 305°
2026-05-05 18:21 20.68394 89.53792 37867 ft 487 kts 305°
2026-05-05 18:21 20.72462 89.48003 37880 ft 488 kts 305°
2026-05-05 18:22 20.76528 89.42201 37876 ft 488 kts 305°
2026-05-05 18:22 20.80591 89.36405 37869 ft 487 kts 305°
2026-05-05 18:23 20.84653 89.30599 37864 ft 488 kts 305°
2026-05-05 18:23 20.88719 89.24793 37868 ft 488 kts 307°
2026-05-05 18:24 20.93771 89.19933 37887 ft 494 kts 328°
2026-05-05 18:24 21.00072 89.16901 37882 ft 498 kts 336°
2026-05-05 18:25 21.06514 89.14176 37884 ft 498 kts 336°
2026-05-05 18:25 21.12955 89.11428 37882 ft 499 kts 336°
2026-05-05 18:26 21.19405 89.08683 37876 ft 499 kts 336°
2026-05-05 18:26 21.25855 89.05932 37878 ft 499 kts 336°
2026-05-05 18:27 21.32301 89.03181 37862 ft 499 kts 336°
2026-05-05 18:27 21.38745 89.00429 37863 ft 499 kts 336°
2026-05-05 18:28 21.48108 88.95699 37890 ft 493 kts 319°
2026-05-05 18:28 21.53145 88.90744 37864 ft 491 kts 313°
2026-05-05 18:29 21.58128 88.85730 37864 ft 492 kts 319°
2026-05-05 18:29 21.63412 88.81038 37865 ft 492 kts 316°
2026-05-05 18:30 21.68500 88.76123 37863 ft 492 kts 317°
2026-05-05 18:30 21.73706 88.71342 37865 ft 492 kts 316°
2026-05-05 18:31 21.78835 88.66482 37865 ft 492 kts 316°
2026-05-05 18:31 21.83967 88.61695 37868 ft 491 kts 316°
2026-05-05 18:32 21.89110 88.56853 37869 ft 491 kts 316°
2026-05-05 18:32 21.94256 88.52024 37868 ft 491 kts 316°
2026-05-05 18:33 21.99396 88.47185 37866 ft 491 kts 316°
2026-05-05 18:33 22.04537 88.42344 37862 ft 489 kts 316°
2026-05-05 18:34 22.09636 88.37533 37857 ft 486 kts 316°
2026-05-05 18:34 22.14722 88.32735 37853 ft 486 kts 316°
2026-05-05 18:35 22.19804 88.27935 37850 ft 486 kts 316°
2026-05-05 18:35 22.24886 88.23132 37855 ft 486 kts 316°
2026-05-05 18:36 22.29965 88.18320 37854 ft 486 kts 316°
2026-05-05 18:36 22.35044 88.13508 37853 ft 486 kts 316°
2026-05-05 18:37 22.40125 88.08690 37853 ft 486 kts 316°
2026-05-05 18:37 22.45198 88.03872 37854 ft 486 kts 316°
2026-05-05 18:38 22.50276 87.99047 37854 ft 486 kts 316°
2026-05-05 18:38 22.55348 87.94223 37854 ft 485 kts 316°
2026-05-05 18:39 22.60416 87.89395 37857 ft 485 kts 316°
2026-05-05 18:39 22.65485 87.84564 37859 ft 486 kts 316°
2026-05-05 18:40 22.70551 87.79731 37855 ft 485 kts 316°
2026-05-05 18:40 22.75613 87.74890 37855 ft 485 kts 316°
2026-05-05 18:41 22.80645 87.70082 37856 ft 485 kts 316°
2026-05-05 18:41 22.85698 87.65241 37862 ft 485 kts 316°
2026-05-05 18:42 22.90757 87.60395 37857 ft 485 kts 315°
2026-05-05 18:42 22.95808 87.55552 37858 ft 485 kts 315°
2026-05-05 18:43 23.00859 87.50699 37862 ft 484 kts 315°
2026-05-05 18:43 23.05911 87.45848 37861 ft 484 kts 315°
2026-05-05 18:44 23.10954 87.40991 37861 ft 485 kts 315°
2026-05-05 18:44 23.15999 87.36135 37862 ft 484 kts 315°
2026-05-05 18:45 23.21034 87.31276 37855 ft 484 kts 315°
2026-05-05 18:45 23.26073 87.26416 37856 ft 484 kts 315°
2026-05-05 18:46 23.30257 87.22372 37858 ft 484 kts 315°
2026-05-05 18:46 23.35291 87.17503 37859 ft 484 kts 315°
2026-05-05 18:47 23.40324 87.12633 37860 ft 484 kts 315°
2026-05-05 18:47 23.45350 87.07758 37855 ft 484 kts 315°
2026-05-05 18:48 23.50376 87.02885 37856 ft 484 kts 315°
2026-05-05 18:48 23.55397 86.98006 37856 ft 483 kts 315°
2026-05-05 18:49 23.60415 86.93129 37858 ft 483 kts 315°
2026-05-05 18:49 23.65425 86.88253 37857 ft 483 kts 315°
2026-05-05 18:50 23.70436 86.83371 37862 ft 483 kts 315°
2026-05-05 18:50 23.75439 86.78487 37870 ft 482 kts 315°
2026-05-05 18:51 23.80443 86.73605 37868 ft 482 kts 315°
2026-05-05 18:51 23.85437 86.68723 37865 ft 482 kts 315°
2026-05-05 18:52 23.90426 86.63841 37869 ft 481 kts 315°
2026-05-05 18:52 23.95410 86.58957 37868 ft 481 kts 315°
2026-05-05 18:53 24.00393 86.54072 37872 ft 481 kts 315°
2026-05-05 18:53 24.05336 86.49217 37875 ft 480 kts 315°
2026-05-05 18:54 24.10308 86.44332 37885 ft 480 kts 315°
2026-05-05 18:54 24.15277 86.39442 37883 ft 480 kts 315°
2026-05-05 18:55 24.20245 86.34551 37878 ft 480 kts 315°
2026-05-05 18:55 24.25211 86.29655 37882 ft 480 kts 315°
2026-05-05 18:56 24.30173 86.24758 37879 ft 480 kts 315°
2026-05-05 18:56 24.35136 86.19850 37883 ft 480 kts 315°
2026-05-05 18:57 24.40095 86.14945 37880 ft 480 kts 315°
2026-05-05 18:57 24.45056 86.10030 37883 ft 480 kts 315°
2026-05-05 18:58 24.50013 86.05119 37883 ft 480 kts 315°
2026-05-05 18:58 24.54969 86.00197 37884 ft 480 kts 315°
2026-05-05 18:59 24.59925 85.95272 37887 ft 481 kts 315°
2026-05-05 18:59 24.64877 85.90349 37886 ft 480 kts 315°
2026-05-05 19:00 24.69829 85.85415 37884 ft 481 kts 315°
2026-05-05 19:00 24.74752 85.80509 37864 ft 481 kts 314°
2026-05-05 19:01 24.79709 85.75558 37835 ft 482 kts 315°
2026-05-05 19:01 24.84669 85.70605 37839 ft 482 kts 315°
2026-05-05 19:02 24.89624 85.65642 37841 ft 482 kts 315°
2026-05-05 19:02 24.94589 85.60677 37840 ft 482 kts 314°
2026-05-05 19:03 24.99548 85.55699 37840 ft 482 kts 314°
2026-05-05 19:03 25.04508 85.50724 37839 ft 482 kts 314°
2026-05-05 19:04 25.09463 85.45742 37842 ft 482 kts 314°
2026-05-05 19:04 25.14423 85.40756 37841 ft 482 kts 314°
2026-05-05 19:05 25.19374 85.35766 37842 ft 482 kts 314°
2026-05-05 19:05 25.24331 85.30768 37842 ft 483 kts 314°
2026-05-05 19:06 25.29287 85.25765 37841 ft 483 kts 314°
2026-05-05 19:06 25.34243 85.20756 37842 ft 483 kts 314°
2026-05-05 19:07 25.39195 85.15742 37843 ft 483 kts 314°
2026-05-05 19:07 25.44147 85.10727 37842 ft 483 kts 314°
2026-05-05 19:08 25.49095 85.05705 37844 ft 483 kts 314°
2026-05-05 19:08 25.54048 85.00681 37840 ft 483 kts 314°
2026-05-05 19:09 25.58994 84.95653 37839 ft 482 kts 314°
2026-05-05 19:09 25.63904 84.90652 37840 ft 483 kts 314°
2026-05-05 19:10 25.68848 84.85621 37841 ft 483 kts 314°
2026-05-05 19:10 25.73780 84.80575 37842 ft 483 kts 314°
2026-05-05 19:11 25.78744 84.75514 37843 ft 489 kts 314°
2026-05-05 19:11 25.83779 84.70360 37849 ft 494 kts 314°
2026-05-05 19:12 25.88831 84.65192 37848 ft 494 kts 314°
2026-05-05 19:12 25.93882 84.60006 37853 ft 495 kts 314°